EW3966 Weather Reports


Display with metric or nautical units.
time (UTC)temp
F
wind
direction
speed
MPH
gust
MPH
rain 1hr
in
rain 24hr
in
rain mn
in
humidity
%
barometer
mb
20260510194516 46 59 3.0 8.0 0.00 0.00 0.00 79 1030.6
20260510194019 47 66 2.0 6.0 0.00 0.00 0.00 77 1030.6
20260510193517 47 47 2.0 6.0 0.00 0.00 0.00 77 1030.6
20260510193016 48 105 1.0 6.0 0.00 0.00 0.00 76 1030.6
20260510192516 48 58 1.0 6.0 0.00 0.00 0.00 76 1030.6
20260510192016 49 244 1.0 5.0 0.00 0.00 0.00 75 1030.5
20260510191518 49 93 1.0 6.0 0.00 0.00 0.00 75 1030.5
20260510191017 49 65 1.0 9.0 0.00 0.00 0.00 75 1030.6
20260510190515 48 92 2.0 9.0 0.00 0.00 0.00 74 1030.6
20260510190021 48 280 1.0 7.0 0.00 0.00 0.00 76 1030.5
20260510185516 48 69 2.0 7.0 0.00 0.00 0.00 76 1030.6
20260510185015 48 60 2.0 7.0 0.00 0.00 0.00 76 1030.6
20260510184515 48 74 2.0 5.0 0.00 0.00 0.00 77 1030.6
20260510184015 48 74 3.0 6.0 0.00 0.00 0.00 77 1030.6
20260510183515 48 70 2.0 6.0 0.00 0.00 0.00 77 1030.6
20260510183015 48 86 3.0 6.0 0.00 0.00 0.00 75 1030.6
20260510182514 48 75 2.0 5.0 0.00 0.00 0.00 76 1030.6
20260510182014 47 58 2.0 8.0 0.00 0.00 0.00 77 1030.6
20260510181523 47 109 2.0 8.0 0.00 0.00 0.00 76 1030.6
20260510181014 48 128 2.0 8.0 0.00 0.00 0.00 75 1030.7
20260510180514 48 93 3.0 9.0 0.00 0.00 0.00 74 1030.7
20260510180015 49 74 5.0 9.0 0.00 0.00 0.00 72 1030.6
20260510175513 50 95 3.0 7.0 0.00 0.00 0.00 72 1030.6
20260510175014 50 86 3.0 7.0 0.00 0.00 0.00 71 1030.7
20260510174513 50 91 2.0 7.0 0.00 0.00 0.00 70 1030.6
20260510174013 51 51 3.0 10.0 0.00 0.00 0.00 71 1030.6
20260510173517 51 166 3.0 10.0 0.00 0.00 0.00 71 1030.6
20260510173013 51 71 4.0 10.0 0.00 0.00 0.00 70 1030.6
20260510172513 52 87 2.0 8.0 0.00 0.00 0.00 70 1030.7
20260510172013 52 58 3.0 8.0 0.00 0.00 0.00 68 1030.7
20260510171513 53 76 2.0 7.0 0.00 0.00 0.00 68 1030.7
20260510171012 53 143 3.0 8.0 0.00 0.00 0.00 69 1030.8
20260510170513 53 78 5.0 8.0 0.00 0.00 0.00 66 1030.7
20260510170011 53 143 2.0 6.0 0.00 0.00 0.00 68 1030.7
20260510165512 53 78 1.0 6.0 0.00 0.00 0.00 69 1030.7
20260510165011 53 67 1.0 7.0 0.00 0.00 0.00 67 1030.8
20260510164514 54 110 2.0 7.0 0.00 0.00 0.00 64 1030.7
20260510164010 54 54 4.0 9.0 0.00 0.00 0.00 63 1030.7
20260510163512 54 99 3.0 7.0 0.00 0.00 0.00 63 1030.7
20260510163018 54 82 3.0 7.0 0.00 0.00 0.00 63 1030.7
20260510162511 54 68 2.0 8.0 0.00 0.00 0.00 67 1030.7
20260510162010 54 53 4.0 8.0 0.00 0.00 0.00 62 1030.7
20260510161511 54 75 3.0 7.0 0.00 0.00 0.00 63 1030.6
20260510161011 55 83 3.0 6.0 0.00 0.00 0.00 62 1030.6
20260510160511 55 72 3.0 8.0 0.00 0.00 0.00 61 1030.6
20260510160018 56 83 3.0 8.0 0.00 0.00 0.00 61 1030.6
20260510155513 56 63 1.0 7.0 0.00 0.00 0.00 60 1030.6
20260510155010 56 116 3.0 6.0 0.00 0.00 0.00 60 1030.6
20260510154508 56 115 2.0 7.0 0.00 0.00 0.00 61 1030.7
20260510154006 55 72 4.0 11.0 0.00 0.00 0.00 62 1030.7
20260510153505 55 126 4.0 11.0 0.00 0.00 0.00 63 1030.7
20260510153006 54 122 2.0 6.0 0.00 0.00 0.00 67 1030.8
20260510152502 53 97 3.0 6.0 0.00 0.00 0.00 67 1030.9
20260510152000 53 79 2.0 6.0 0.00 0.00 0.00 68 1030.9
20260510151603 52 76 2.0 6.0 0.00 0.00 0.00 70 1030.8
20260510151059 52 85 4.0 7.0 0.00 0.00 0.00 71 1030.8
20260510150559 52 75 4.0 7.0 0.00 0.00 0.00 72 1030.8
20260510150100 51 87 2.0 7.0 0.00 0.00 0.00 75 1030.9
20260510145557 51 65 2.0 6.0 0.00 0.00 0.00 75 1030.8
20260510145057 51 73 1.0 5.0 0.00 0.00 0.00 75 1030.8
20260510144600 51 67 1.0 3.0 0.00 0.00 0.00 75 1030.8
20260510144055 51 68 1.0 4.0 0.00 0.00 0.00 74 1030.8
20260510143056 50 67 2.0 4.0 0.00 0.00 0.00 76 1030.7
20260510142556 50 78 1.0 5.0 0.00 0.00 0.00 76 1030.7
20260510142056 50 60 2.0 5.0 0.00 0.00 0.00 77 1030.7
20260510141558 50 91 1.0 3.0 0.00 0.00 0.00 75 1030.8
20260510141056 51 100 1.0 3.0 0.00 0.00 0.00 76 1030.7
20260510140555 51 83 1.0 3.0 0.00 0.00 0.00 74 1030.7
20260510140058 52 76 1.0 5.0 0.00 0.00 0.00 74 1030.7
20260510135555 52 54 2.0 5.0 0.00 0.00 0.00 72 1030.6
20260510135054 52 64 2.0 5.0 0.00 0.00 0.00 72 1030.6
20260510134603 52 70 2.0 6.0 0.00 0.00 0.00 71 1030.6
20260510134054 52 76 2.0 7.0 0.00 0.00 0.00 71 1030.7
20260510133052 50 85 3.0 5.0 0.00 0.00 0.00 78 1030.6
20260510132551 50 103 1.0 5.0 0.00 0.00 0.00 79 1030.7
20260510132052 49 80 1.0 5.0 0.00 0.00 0.00 81 1030.6
20260510131550 49 73 1.0 6.0 0.00 0.00 0.00 80 1030.6
20260510131050 49 71 2.0 6.0 0.00 0.00 0.00 80 1030.7
20260510130549 49 125 1.0 3.0 0.00 0.00 0.00 78 1030.7
20260510130049 49 82 1.0 4.0 0.00 0.00 0.00 79 1030.6
20260510125547 49 68 1.0 4.0 0.00 0.00 0.00 82 1030.6
20260510125046 48 89 1.0 4.0 0.00 0.00 0.00 81 1030.6
20260510124555 48 89 1.0 5.0 0.00 0.00 0.00 81 1030.6
20260510124045 48 80 2.0 5.0 0.00 0.00 0.00 82 1030.6
20260510123044 46 74 1.0 5.0 0.00 0.00 0.00 83 1030.6
20260510122545 47 84 0.0 4.0 0.00 0.00 0.00 83 1030.6
20260510122043 47 81 1.0 3.0 0.00 0.00 0.00 83 1030.6
20260510121543 47 81 1.0 2.0 0.00 0.00 0.00 84 1030.6
20260510121042 47 72 0.0 4.0 0.00 0.00 0.00 85 1030.5
20260510120542 46 72 1.0 5.0 0.00 0.00 0.00 85 1030.4
20260510120041 46 69 2.0 5.0 0.00 0.00 0.00 85 1030.4
20260510115540 46 68 2.0 5.0 0.00 0.00 0.00 86 1030.4
20260510115040 45 71 0.0 4.0 0.00 0.00 0.00 86 1030.4
20260510114543 45 67 1.0 5.0 0.00 0.00 0.00 86 1030.3
20260510114038 45 80 1.0 5.0 0.00 0.00 0.00 87 1030.4
20260510113040 45 82 1.0 4.0 0.00 0.00 0.00 87 1030.2
20260510112538 45 93 0.0 2.0 0.00 0.00 0.00 86 1030.0
20260510112037 46 87 0.0 5.0 0.00 0.00 0.00 87 1030.0
20260510111536 46 72 1.0 5.0 0.00 0.00 0.00 88 1030.0
20260510111034 46 78 0.0 4.0 0.00 0.00 0.00 89 1030.0
20260510110534 45 78 0.0 3.0 0.00 0.00 0.00 88 1029.9
20260510110034 46 82 0.0 2.0 0.00 0.00 0.00 89 1029.9
20260510105534 45 82 1.0 2.0 0.00 0.00 0.00 90 1029.9
20260510105032 45 82 0.0 0.0 0.00 0.00 0.00 91 1029.8
20260510104535 44 82 0.0 5.0 0.00 0.00 0.00 90 1029.8
20260510104030 45 82 0.0 5.0 0.00 0.00 0.00 91 1029.7
20260510103031 44 177 0.0 1.0 0.00 0.00 0.00 92 1029.5
20260510102530 44 177 0.0 2.0 0.00 0.00 0.00 93 1029.5
20260510102029 44 269 0.0 6.0 0.00 0.00 0.00 93 1029.4
20260510101528 43 285 2.0 6.0 0.00 0.00 0.00 94 1029.3
20260510101026 43 268 3.0 6.0 0.00 0.00 0.00 94 1029.2
20260510100525 42 270 0.0 5.0 0.00 0.00 0.00 95 1029.2
20260510100024 42 273 2.0 6.0 0.00 0.00 0.00 95 1029.1
20260510095522 41 267 3.0 5.0 0.00 0.00 0.00 95 1029.1
20260510095020 41 272 3.0 5.0 0.00 0.00 0.00 95 1029.0
20260510094533 40 288 1.0 6.0 0.00 0.00 0.00 95 1029.0
20260510094018 39 299 1.0 6.0 0.00 0.00 0.00 96 1029.0
20260510093017 39 280 3.0 6.0 0.00 0.00 0.00 95 1028.8
20260510092516 38 268 2.0 8.0 0.00 0.00 0.00 96 1028.8
20260510092017 38 274 4.0 8.0 0.00 0.00 0.00 96 1028.8
20260510091514 38 270 4.0 7.0 0.00 0.00 0.00 96 1028.6
20260510091013 37 255 3.0 6.0 0.00 0.00 0.00 96 1028.5
20260510090512 37 260 3.0 5.0 0.00 0.00 0.00 96 1028.4
20260510090010 36 276 0.0 4.0 0.00 0.00 0.00 96 1028.3
20260510085511 36 273 1.0 5.0 0.00 0.00 0.00 95 1028.3
20260510085109 35 260 3.0 5.0 0.00 0.00 0.00 95 1028.2
20260510084509 35 253 2.0 5.0 0.00 0.00 0.00 95 1028.1
20260510084009 34 265 0.0 2.0 0.00 0.00 0.00 95 1028.1
20260510083008 34 265 0.0 4.0 0.00 0.00 0.00 95 1027.8
20260510082507 34 265 0.0 5.0 0.00 0.00 0.00 95 1027.7
20260510082007 34 266 1.0 5.0 0.00 0.00 0.00 95 1027.7
20260510081517 33 257 2.0 5.0 0.00 0.00 0.00 95 1027.6
20260510081006 32 255 3.0 5.0 0.00 0.00 0.00 95 1027.5
20260510080505 32 254 1.0 3.0 0.00 0.00 0.00 94 1027.5
20260510080004 33 254 1.0 4.0 0.00 0.00 0.00 94 1027.4
20260510075503 33 254 2.0 3.0 0.00 0.00 0.00 94 1027.4
20260510075003 34 254 1.0 2.0 0.00 0.00 0.00 95 1027.3
20260510074600 34 254 1.0 2.0 0.00 0.00 0.00 95 1027.3
20260510074059 35 254 0.0 1.0 0.00 0.00 0.00 95 1027.2
20260510073110 36 258 1.0 5.0 0.00 0.00 0.00 95 1027.0
20260510072558 35 270 2.0 5.0 0.00 0.00 0.00 95 1026.9
20260510072102 35 259 2.0 6.0 0.00 0.00 0.00 95 1026.9
20260510071600 35 299 2.0 6.0 0.00 0.00 0.00 95 1026.9
20260510071057 35 284 2.0 6.0 0.00 0.00 0.00 95 1026.9
20260510070556 35 293 2.0 7.0 0.00 0.00 0.00 95 1026.9
20260510070055 36 293 4.0 8.0 0.00 0.00 0.00 95 1027.0
20260510065555 36 266 3.0 8.0 0.00 0.00 0.00 95 1026.8
20260510065053 35 255 3.0 7.0 0.00 0.00 0.00 95 1026.8
20260510064554 35 249 2.0 8.0 0.00 0.00 0.00 95 1026.7
20260510064052 35 278 2.0 8.0 0.00 0.00 0.00 95 1026.7
20260510063055 35 277 1.0 5.0 0.00 0.00 0.00 95 1026.5
20260510062553 34 274 2.0 5.0 0.00 0.00 0.00 94 1026.4
20260510062052 34 276 2.0 3.0 0.00 0.00 0.00 94 1026.4
20260510061601 35 280 2.0 4.0 0.00 0.00 0.00 94 1026.2
20260510061055 35 280 1.0 2.0 0.00 0.00 0.00 94 1026.2
20260510060550 35 280 0.0 2.0 0.00 0.00 0.00 94 1026.3
20260510060050 35 280 0.0 4.0 0.00 0.00 0.00 94 1026.2
20260510055550 35 281 1.0 4.0 0.00 0.00 0.00 94 1026.2
20260510055049 35 284 0.0 2.0 0.00 0.00 0.00 94 1026.2
20260510054558 35 284 0.0 2.0 0.00 0.00 0.00 94 1026.1
20260510054046 35 284 1.0 4.0 0.00 0.00 0.00 94 1026.1
20260510053046 36 284 0.0 4.0 0.00 0.00 0.00 94 1026.0
20260510052544 36 284 1.0 4.0 0.00 0.00 0.00 94 1025.9
20260510052043 37 284 0.0 2.0 0.00 0.00 0.00 94 1025.9
20260510051543 37 284 0.0 2.0 0.00 0.00 0.00 94 1025.8
20260510051043 37 284 0.0 2.0 0.00 0.00 0.00 94 1025.8
20260510050542 37 284 0.0 2.0 0.00 0.00 0.00 94 1025.7
20260510050048 37 324 0.0 2.0 0.00 0.00 0.00 94 1025.7
20260510045541 37 353 0.0 2.0 0.00 0.00 0.00 94 1025.6
20260510045039 37 355 1.0 3.0 0.00 0.00 0.00 94 1025.6
20260510044546 36 12 1.0 5.0 0.00 0.00 0.00 94 1025.6
20260510044039 36 276 1.0 4.0 0.00 0.00 0.00 94 1025.7
20260510043040 36 276 0.0 2.0 0.00 0.00 0.00 94 1025.5
20260510042539 36 276 0.0 4.0 0.00 0.00 0.00 94 1025.5
20260510042038 36 276 1.0 4.0 0.00 0.00 0.00 94 1025.6
20260510041553 36 285 1.0 5.0 0.00 0.00 0.00 94 1025.5
20260510041038 36 318 0.0 6.0 0.00 0.00 0.00 94 1025.5
20260510040540 35 278 2.0 4.0 0.00 0.00 0.00 94 1025.5
20260510040040 35 280 1.0 4.0 0.00 0.00 0.00 93 1025.5
20260510035537 36 317 1.0 4.0 0.00 0.00 0.00 94 1025.3
20260510035037 35 287 1.0 4.0 0.00 0.00 0.00 93 1025.3
20260510034537 35 291 2.0 4.0 0.00 0.00 0.00 93 1025.2
20260510034035 36 276 0.0 4.0 0.00 0.00 0.00 93 1025.3
20260510033038 36 319 2.0 4.0 0.00 0.00 0.00 93 1025.1
20260510032536 36 295 1.0 4.0 0.00 0.00 0.00 93 1025.0
20260510032032 36 295 0.0 5.0 0.00 0.00 0.00 93 1025.1
20260510031547 36 249 1.0 5.0 0.00 0.00 0.00 93 1025.0
20260510031030 36 14 1.0 4.0 0.00 0.00 0.00 93 1024.8
20260510030531 36 345 1.0 2.0 0.00 0.00 0.00 92 1024.8
20260510030035 36 340 1.0 2.0 0.00 0.00 0.00 92 1024.7
20260510025529 36 22 1.0 3.0 0.00 0.00 0.00 92 1024.6
20260510025028 37 23 1.0 4.0 0.00 0.00 0.00 92 1024.6
20260510024528 37 23 0.0 5.0 0.00 0.00 0.00 93 1024.5
20260510024026 37 29 1.0 5.0 0.00 0.00 0.00 93 1024.5
20260510023025 36 340 1.0 4.0 0.00 0.00 0.00 93 1024.4
20260510022524 36 23 1.0 2.0 0.00 0.00 0.00 93 1024.3
20260510022024 36 23 0.0 4.0 0.00 0.00 0.00 93 1024.3
20260510021530 36 23 1.0 5.0 0.00 0.00 0.00 93 1024.3
20260510021022 36 12 1.0 5.0 0.00 0.00 0.00 93 1024.2
20260510020522 36 39 0.0 5.0 0.00 0.00 0.00 93 1024.1
20260510020022 36 350 0.0 5.0 0.00 0.00 0.00 93 1024.1
20260510015523 36 22 1.0 4.0 0.00 0.00 0.00 93 1024.1
20260510015021 36 65 1.0 2.0 0.00 0.00 0.00 93 1024.0
20260510014520 37 41 0.0 2.0 0.00 0.00 0.00 93 1024.0
20260510014020 37 41 0.0 2.0 0.00 0.00 0.00 93 1023.9
20260510013020 37 41 0.0 4.0 0.00 0.00 0.00 93 1023.8
20260510012519 36 51 0.0 4.0 0.00 0.00 0.00 93 1023.8
20260510012019 36 51 1.0 4.0 0.00 0.00 0.00 93 1023.7
20260510011519 36 51 0.0 2.0 0.00 0.00 0.00 94 1023.7
20260510011019 36 51 0.0 5.0 0.00 0.00 0.00 94 1023.7
20260510010518 36 50 1.0 5.0 0.00 0.00 0.00 94 1023.6
20260510010019 36 64 1.0 2.0 0.00 0.00 0.00 94 1023.6
20260510005518 36 70 0.0 2.0 0.00 0.00 0.00 94 1023.6
20260510005016 36 60 1.0 2.0 0.00 0.00 0.00 94 1023.5
20260510004619 36 58 1.0 2.0 0.00 0.00 0.00 93 1023.5
20260510004017 36 71 0.0 4.0 0.00 0.00 0.00 93 1023.5
20260510003016 36 71 0.0 5.0 0.00 0.00 0.00 93 1023.2
20260510002515 36 72 1.0 7.0 0.00 0.00 0.00 93 1023.2
20260510002014 36 66 2.0 7.0 0.00 0.00 0.00 93 1023.1
20260510001514 37 74 3.0 7.0 0.00 0.00 0.00 93 1023.0
20260510001013 37 56 3.0 7.0 0.00 0.00 0.00 93 1022.8
20260510000512 37 60 3.0 8.0 0.00 0.00 0.00 93 1022.7
20260510000013 37 66 2.0 8.0 0.00 0.00 0.00 93 1022.6
20260509235509 37 76 2.0 6.0 0.00 0.00 0.00 93 1022.6
20260509235009 37 70 2.0 7.0 0.00 0.00 0.00 93 1022.5
20260509234510 37 72 3.0 7.0 0.00 0.00 0.00 93 1022.4
20260509234009 37 68 3.0 7.0 0.00 0.00 0.00 92 1022.3
20260509233006 37 78 3.0 6.0 0.00 0.00 0.00 92 1022.0
20260509232506 38 84 4.0 6.0 0.00 0.00 0.00 91 1021.9
20260509232004 38 49 0.0 4.0 0.00 0.00 0.00 91 1021.8
20260509231502 38 49 1.0 5.0 0.00 0.00 0.00 91 1021.7
20260509231001 38 62 1.0 5.0 0.00 0.00 0.00 90 1021.6
20260509230501 38 51 1.0 5.0 0.00 0.00 0.00 90 1021.5
20260509230100 38 78 2.0 5.0 0.00 0.00 0.00 90 1021.4
20260509225559 38 69 3.0 5.0 0.00 0.00 0.00 90 1021.2
20260509225059 38 48 0.0 2.0 0.00 0.00 0.00 90 1021.3
20260509224559 38 48 0.0 2.0 0.00 0.00 0.00 90 1021.3
20260509224058 38 48 0.0 4.0 0.00 0.00 0.00 90 1021.1
20260509223101 38 64 2.0 6.0 0.00 0.00 0.00 89 1020.5
20260509222559 39 76 2.0 5.0 0.00 0.00 0.00 89 1020.5
20260509222055 39 74 2.0 5.0 0.00 0.00 0.00 89 1020.4
20260509221556 39 68 1.0 5.0 0.00 0.00 0.00 90 1020.4
20260509221055 39 70 0.0 4.0 0.00 0.00 0.00 90 1020.4
20260509220555 38 65 1.0 4.0 0.00 0.00 0.00 89 1020.1
20260509220057 39 53 1.0 5.0 0.00 0.00 0.00 89 1020.0
20260509215554 39 75 1.0 5.0 0.00 0.00 0.00 89 1019.7
20260509215051 39 63 1.0 6.0 0.00 0.00 0.00 89 1019.6
20260509214550 39 61 3.0 6.0 0.00 0.00 0.00 88 1019.6
20260509214053 39 70 3.0 6.0 0.00 0.00 0.00 88 1019.4
20260509213049 39 62 4.0 6.0 0.00 0.00 0.00 88 1019.0
20260509212548 39 75 3.0 6.0 0.00 0.00 0.00 87 1019.0
20260509212046 40 79 4.0 6.0 0.00 0.00 0.00 87 1018.8
20260509211554 40 76 2.0 6.0 0.00 0.00 0.00 87 1018.9
20260509211045 40 65 3.0 6.0 0.00 0.00 0.00 87 1018.6
20260509210545 40 68 3.0 7.0 0.00 0.00 0.00 87 1018.5
20260509210052 40 43 2.0 6.0 0.00 0.00 0.00 87 1018.4
20260509205542 40 73 2.0 6.0 0.00 0.00 0.00 87 1018.4
20260509205041 40 70 3.0 8.0 0.00 0.00 0.00 87 1018.1
20260509204540 40 66 6.0 8.0 0.00 0.00 0.00 87 1017.9
20260509204039 40 78 5.0 9.0 0.00 0.00 0.00 87 1017.8
20260509203038 41 78 5.0 9.0 0.00 0.00 0.00 86 1017.8
20260509202539 42 59 4.0 9.0 0.00 0.00 0.00 86 1017.8
20260509202035 42 77 3.0 10.0 0.00 0.00 0.00 86 1017.5
20260509201533 42 81 5.0 10.0 0.00 0.00 0.00 85 1017.4
20260509201033 43 58 4.0 10.0 0.00 0.00 0.00 85 1017.2
20260509200532 43 76 3.0 9.0 0.00 0.00 0.00 85 1017.1
20260509200032 43 22 2.0 8.0 0.00 0.00 0.00 84 1017.0
20260509195534 44 47 3.0 8.0 0.00 0.00 0.00 84 1016.9
20260509195028 44 51 4.0 9.0 0.00 0.00 0.00 84 1016.8